Home > Weather > Chur > Past weeks

Flag for Switzerland Weather for the Past 2 Weeks in Chur, Graubünden, Switzerland

Now
42 °F

Quite cool.


Feels Like: 35 °F
Forecast: 36 / 49 °F
Wind: 13 mph from South

Location: Chur

Current Time: Feb 13, 2016 at 6:59:14 PM

Latest Report: Feb 13, 2016 at 6:00 PM


Visibility: N/A

Pressure: 29.26 "Hg (27.22 "Hg at 592m altitude)

Humidity: 69%

Dew point: 33 °F

Location of ChurLocation

Historic Weather in Chur — Graph

°F

Chur Temperature Yesterday

Maximum temperature yesterday: 46 °F (at 1:00 PM)
Minimum temperature yesterday: 28 °F (at 6:00 AM)
Average temperature yesterday: 38 °F

High & Low Weather Summary for the Past Weeks

 TemperatureHumidityPressure
High57 °F (Jan 30, 2:00 PM)98% (Feb 5, 8:00 AM)30.53 "Hg (Feb 5, 8:00 AM)
Low28 °F (Feb 11, 6:00 AM)29% (Feb 12, 1:00 PM)29.26 "Hg (Feb 13, 4:00 PM)
Average41 °F72%30.00 "Hg
* Reported Jan 29 5:00 PM — Feb 13 5:00 PM, Chur, Weather by CustomWeather, © 2016

Note: Actual official high and low records may vary slightly from our data, if they occured in-between our weather recording intervals... More about our weather records

Advertising

Chur Weather History for the Previous 24 Hours

 ConditionsComfort  
Time TempWeatherWind HumidityBarometerVisibility
5:00 PM
Sat, Feb 13
44 °FQuite cool.10 mph65%29.26 "HgN/A
4:00 PM44 °FPassing clouds.10 mph69%29.26 "Hg12 mi
3:00 PM44 °FQuite cool.12 mph71%29.32 "HgN/A
2:00 PM40 °FQuite cool.12 mph76%29.38 "HgN/A
1:00 PM40 °FOvercast.18 mph66%29.38 "Hg9 mi
12:00 PM39 °FChilly.15 mph68%29.38 "HgN/A
11:00 AM38 °FChilly.12 mph72%29.44 "HgN/A
10:00 AM35 °FFog.10 mph80%29.47 "Hg7 mi
9:00 AM34 °FChilly.7 mph86%29.50 "HgN/A
8:00 AM33 °FChilly.3 mph91%29.50 "HgN/A
7:00 AM33 °FLight snow. Low clouds.1 mph94%29.50 "Hg2 mi
6:00 AM34 °FChilly.3 mph91%29.50 "HgN/A
5:00 AM33 °FChilly.7 mph91%29.50 "HgN/A
9:00 PM
Fri, Feb 12
38 °FChilly.15 mph57%29.47 "HgN/A
8:00 PM40 °FChilly.13 mph53%29.47 "HgN/A
7:00 PM42 °FOvercast.10 mph41%29.44 "Hg16 mi
6:00 PM42 °FQuite cool.16 mph36%29.41 "HgN/A
Weather by CustomWeather, © 2016

See weather overviewHow to use our weather pages